STARLINK-2719 (48677 NORAD) Tracking and Keplerian Element Data

This shows tracking and keplerian element data for the satellite.

Feedback or suggestion? Click here.




ElementValue
Catalog48677
NameSTARLINK-2719
Epoch Orbit364
Epoch Day214.91667824
Epoch Year2021
RAAN92.4816
Inclination53.0458
Eccentricity0.0001335
Argument of Perigee67.6678
Mean Anonmoly350.9164
Mean Motion15.13039937
Decay Rate-0.00925943
L11 48677U 21044AR 21214.91667824 -.00925943 00000-0 -55988-1 0 9996
L22 48677 53.0458 92.4816 0001335 67.6678 350.9164 15.13039937 3643

Live tracking and technical data element details for STARLINK-2719 (NORAD 48677). STARLINK-2719 can be tracked NOW for your location showing map with azimuth and elevation plus other details from your city location.

Track the satellite on the map from your city or location and see movement details for azimuth, elevation, latitude, longitude, range, height, and movement on the map or in text.







IsCatalogInMostPopularTable: catalog: 48677, numindb: 15
Update: records affected: 1



GetName: 48677 STARLINK-2719

Hit Count: updated at: Tue, 03 Aug 2021 21:33:37 GMT